Terminal Aerodrome Forecast
Issued by NWS Knoxville/Tri Cities, TN

Home | Current Version | Previous Version | Text Only | Print | Product List | Glossary On
Versions: 1 2 3 4 5 6 7 8 9 10 11 12 13 14 15 16 17 18 19 20 21 22 23
000
FTUS44 KMRX 241728
TAFTRI
TAF
KTRI 241728Z 2418/2518 VRB04KT P6SM VCTS SCT050CB BKN250
     FM250100 00000KT P6SM SCT200
     FM251500 VRB03KT P6SM FEW045 BKN250=

USA.gov is the U.S. government's official web portal to all federal, state and local government web resources and services.